CFG402 DNMM-EGLL

Flight info

Callsign CFG402
Flight time N/A
Altitude 35000
Route BUDSI UB731 KIGRA UY333 MIGNI UY212 EREBO/N0476F360 UA604 TMS/N0471F370 UZ111 OPRIC/N0468F360 UZ111 ELO UR978 NADJI/N0462F380 UR978 CSO UM998 KAMER DCT NAFOQ DCT SURJU DCT PADKO DCT MRM DCT MTL DCT ETREK DCT MADOT DCT MOPEM DCT CACHI DCT AVLON DCT OKRIX DCT BRY/N0455F360 DCT CLM DCT KOPOR DCT ABNUR DCT DIMAL DCT ALESO
Aircraft A339/H-SADE1E2E3GHIJ3J5M1P2RWXY/LB2D1

Departure

Time 2026-05-04 09:11
Airport Murtala Muhammed International Airport (DNMM)

Arrival

Time N/A
Airport London Heathrow Airport (EGLL)
Time Latitude Longitude Altitude Speed Heading
2026-05-04 08:47 6.58058 3.31902 97 ft 0 kts 67°
2026-05-04 08:57 6.58050 3.31882 97 ft 2 kts 67°
2026-05-04 09:01 6.57972 3.31823 95 ft 0 kts 336°
2026-05-04 09:05 6.57978 3.31821 95 ft 3 kts 336°
2026-05-04 09:06 6.58015 3.31805 94 ft 8 kts 338°
2026-05-04 09:07 6.58198 3.31523 83 ft 8 kts 358°
2026-05-04 09:08 6.58263 3.31521 83 ft 10 kts 358°
2026-05-04 09:08 6.58344 3.31519 82 ft 12 kts
2026-05-04 09:08 6.58446 3.31519 81 ft 15 kts
2026-05-04 09:08 6.58568 3.31519 80 ft 17 kts 360°
2026-05-04 09:09 6.58694 3.31518 79 ft 18 kts 360°
2026-05-04 09:09 6.58808 3.31482 77 ft 15 kts 304°
2026-05-04 09:09 6.58806 3.31411 80 ft 8 kts 261°
2026-05-04 09:09 6.58781 3.31365 82 ft 7 kts 226°
2026-05-04 09:10 6.58726 3.31326 83 ft 12 kts 202°
2026-05-04 09:10 6.58575 3.31316 83 ft 44 kts 180°
2026-05-04 09:10 6.58018 3.31322 79 ft 111 kts 179°
2026-05-04 09:10 6.57035 3.31334 79 ft 167 kts 179°
2026-05-04 09:11 6.55688 3.31338 226 ft 201 kts 180°
2026-05-04 09:11 6.54307 3.31343 1068 ft 190 kts 179°
2026-05-04 09:11 6.53022 3.31347 1805 ft 186 kts 182°
2026-05-04 09:11 6.51768 3.30988 2076 ft 196 kts 222°
2026-05-04 09:12 6.51119 3.29732 2268 ft 207 kts 270°
2026-05-04 09:12 6.51231 3.28254 2613 ft 213 kts 277°
2026-05-04 09:14 6.58249 3.22924 5100 ft 260 kts 359°
2026-05-04 09:14 6.60122 3.22912 5329 ft 273 kts 359°
2026-05-04 09:14 6.62089 3.22892 5645 ft 283 kts 359°
2026-05-04 09:14 6.64103 3.22863 6135 ft 286 kts 359°
2026-05-04 09:15 6.66105 3.22832 6630 ft 286 kts 359°
2026-05-04 09:15 6.68129 3.22800 7086 ft 288 kts 360°
2026-05-04 09:15 6.70154 3.22768 7524 ft 290 kts 360°
2026-05-04 09:15 6.72187 3.22736 7949 ft 291 kts
2026-05-04 09:17 6.88823 3.23704 10585 ft 315 kts 11°
2026-05-04 09:18 6.91055 3.24026 10781 ft 324 kts 11°
2026-05-04 09:18 6.93349 3.24355 10971 ft 334 kts 11°
2026-05-04 09:18 6.95719 3.24687 11175 ft 343 kts 11°
2026-05-04 09:18 6.98110 3.25021 11561 ft 346 kts 11°
2026-05-04 09:19 7.00501 3.25354 12056 ft 345 kts 12°
2026-05-04 09:19 7.02927 3.25694 12491 ft 345 kts 12°
2026-05-04 09:19 7.05332 3.26027 12884 ft 348 kts 12°
2026-05-04 09:19 7.07724 3.26360 13278 ft 349 kts 13°
2026-05-04 09:20 7.10172 3.26791 13666 ft 352 kts 14°
2026-05-04 09:20 7.12603 3.27251 14036 ft 355 kts 14°
2026-05-04 09:20 7.15049 3.27716 14415 ft 357 kts 14°
2026-05-04 09:20 7.17507 3.28178 14800 ft 361 kts 14°
2026-05-04 09:21 7.20029 3.28652 15198 ft 363 kts 14°
2026-05-04 09:21 7.22527 3.29123 15577 ft 366 kts 14°
2026-05-04 09:21 7.25052 3.29600 15960 ft 369 kts 14°
2026-05-04 09:21 7.27636 3.30087 16347 ft 371 kts 14°
2026-05-04 09:22 7.30169 3.30564 16709 ft 374 kts 14°
2026-05-04 09:22 7.32763 3.31056 17077 ft 376 kts 14°
2026-05-04 09:22 7.35380 3.31553 17443 ft 379 kts 14°
2026-05-04 09:22 7.38014 3.32053 17807 ft 382 kts 14°
2026-05-04 09:23 7.40652 3.32552 18165 ft 385 kts 14°
2026-05-04 09:23 7.43323 3.33059 18526 ft 388 kts 13°
2026-05-04 09:23 7.45993 3.33565 18883 ft 390 kts 13°
2026-05-04 09:23 7.48692 3.34075 19235 ft 392 kts 13°
2026-05-04 09:25 7.67772 3.37677 21471 ft 406 kts 12°
2026-05-04 09:25 7.70585 3.38208 21750 ft 409 kts 12°
2026-05-04 09:26 7.73417 3.38743 21980 ft 413 kts 12°
2026-05-04 09:26 7.76240 3.39276 22219 ft 417 kts 11°
2026-05-04 09:26 7.79144 3.39724 22484 ft 419 kts
2026-05-04 09:26 7.82117 3.40010 22755 ft 422 kts
2026-05-04 09:27 7.84959 3.40212 23006 ft 423 kts
2026-05-04 09:27 7.87926 3.40412 23269 ft 426 kts
2026-05-04 09:27 7.90898 3.40610 23539 ft 427 kts
2026-05-04 09:27 7.93913 3.40811 23814 ft 429 kts
2026-05-04 09:28 7.96940 3.41015 24085 ft 431 kts
2026-05-04 09:28 7.99961 3.41219 24357 ft 433 kts
2026-05-04 09:28 8.02978 3.41424 24627 ft 435 kts
2026-05-04 09:28 8.06031 3.41630 24895 ft 436 kts
2026-05-04 09:29 8.09108 3.41839 25163 ft 438 kts
2026-05-04 09:29 8.12164 3.42046 25423 ft 440 kts
2026-05-04 09:29 8.15246 3.42255 25685 ft 442 kts
2026-05-04 09:29 8.18357 3.42466 25946 ft 444 kts
2026-05-04 09:30 8.21484 3.42678 26205 ft 445 kts
2026-05-04 09:30 8.24583 3.42887 26450 ft 447 kts
2026-05-04 09:30 8.27716 3.43099 26697 ft 449 kts
2026-05-04 09:30 8.30883 3.43314 26944 ft 451 kts
2026-05-04 09:31 8.34020 3.43525 27187 ft 452 kts
2026-05-04 09:31 8.37212 3.43734 27426 ft 454 kts
2026-05-04 09:31 8.40373 3.43940 27662 ft 456 kts
2026-05-04 09:31 8.43609 3.44150 27902 ft 458 kts
2026-05-04 09:32 8.46814 3.44356 34326 ft 458 kts
2026-05-04 09:32 8.50011 3.44557 34513 ft 458 kts
2026-05-04 09:34 8.72831 3.46118 35806 ft 475 kts
2026-05-04 09:34 8.76145 3.46343 35407 ft 473 kts
2026-05-04 09:34 8.79455 3.46567 35166 ft 471 kts
2026-05-04 09:34 9.40043 3.50671 35023 ft 470 kts
2026-05-04 09:35 9.46767 3.51367 34962 ft 473 kts
2026-05-04 09:35 9.53291 3.52782 34982 ft 476 kts 13°
2026-05-04 09:37 13.59975 4.71445 35057 ft 476 kts
2026-05-04 09:38 13.73610 4.74552 35037 ft 479 kts
2026-05-04 09:38 15.23238 5.08702 35012 ft 480 kts
2026-05-04 09:39 17.79870 5.68451 35044 ft 481 kts 11°
2026-05-04 09:39 17.86359 5.70590 35060 ft 485 kts 17°
2026-05-04 09:40 20.01615 6.55950 35103 ft 484 kts 15°
2026-05-04 09:40 20.08155 6.57645 35417 ft 477 kts
2026-05-04 09:41 20.11467 6.57876 35755 ft 468 kts 354°
2026-05-04 09:42 22.75266 5.47433 36150 ft 452 kts 339°
2026-05-04 09:43 22.78366 5.46626 36290 ft 456 kts 343°
2026-05-04 09:43 22.81515 5.46060 36564 ft 456 kts 347°
2026-05-04 09:43 22.84561 5.45748 36826 ft 457 kts 351°
2026-05-04 09:43 22.87774 5.45667 37053 ft 458 kts 354°
2026-05-04 09:44 22.91033 5.45848 37278 ft 461 kts 358°
2026-05-04 09:44 22.93237 5.46074 37409 ft 462 kts 359°
2026-05-04 09:46 30.88724 6.42721 37072 ft 456 kts 359°
2026-05-04 09:46 33.47745 6.77511 36955 ft 455 kts 358°
2026-05-04 09:47 33.54071 6.77819 36884 ft 451 kts 353°
2026-05-04 09:49 34.97137 6.69118 37879 ft 456 kts 351°
2026-05-04 09:49 35.00133 6.68933 38065 ft 456 kts 351°
2026-05-04 09:49 35.03332 6.68735 38197 ft 457 kts 351°
2026-05-04 09:51 35.22384 6.67554 38214 ft 455 kts 350°
2026-05-04 09:51 36.26884 6.60999 38196 ft 456 kts 350°
2026-05-04 09:52 36.33198 6.60166 38123 ft 451 kts 345°
2026-05-04 09:52 36.39446 6.59008 38108 ft 450 kts 345°
2026-05-04 09:53 36.45656 6.57844 38129 ft 450 kts 345°
2026-05-04 09:53 36.51884 6.56680 38149 ft 451 kts 344°
2026-05-04 09:54 36.58042 6.55529 38144 ft 450 kts 344°
2026-05-04 09:54 36.64270 6.54365 38133 ft 450 kts 344°
2026-05-04 09:55 36.70481 6.53202 38119 ft 450 kts 344°
2026-05-04 09:55 36.76729 6.52030 38106 ft 450 kts 344°
2026-05-04 09:56 36.82823 6.50887 38134 ft 449 kts 344°
2026-05-04 09:56 36.89040 6.49719 38183 ft 449 kts 344°
2026-05-04 09:57 36.95265 6.48551 38181 ft 449 kts 344°
2026-05-04 09:57 37.01502 6.47369 38147 ft 448 kts 344°
2026-05-04 09:58 37.07700 6.46193 38125 ft 448 kts 344°
2026-05-04 09:58 37.13914 6.45014 38112 ft 448 kts 344°
2026-05-04 10:00 37.38651 6.40313 38089 ft 447 kts 344°
2026-05-04 10:04 37.81762 6.32047 38087 ft 447 kts 343°
2026-05-04 10:04 37.87964 6.30851 38087 ft 447 kts 343°
2026-05-04 10:05 37.94104 6.29665 38086 ft 447 kts 343°
2026-05-04 10:05 38.00305 6.28465 38086 ft 447 kts 343°
2026-05-04 10:06 38.06486 6.27265 38085 ft 447 kts 343°
2026-05-04 10:06 38.12688 6.26058 38086 ft 447 kts 343°
2026-05-04 10:08 38.34230 6.21863 38083 ft 447 kts 343°
2026-05-04 10:08 38.40364 6.20663 38083 ft 447 kts 343°
2026-05-04 10:09 38.46538 6.19451 38082 ft 446 kts 343°
2026-05-04 10:09 38.52737 6.18232 38082 ft 446 kts 343°
2026-05-04 10:10 38.58884 6.17021 38081 ft 446 kts 343°
2026-05-04 10:10 38.65053 6.15804 38081 ft 446 kts 343°
2026-05-04 10:11 38.71215 6.14586 38080 ft 446 kts 343°
2026-05-04 10:11 38.77414 6.13357 38079 ft 446 kts 343°
2026-05-04 10:12 38.83570 6.12134 38078 ft 446 kts 343°
2026-05-04 10:12 38.89706 6.10913 38077 ft 446 kts 343°
2026-05-04 10:13 38.95890 6.09679 38075 ft 446 kts 343°
2026-05-04 10:13 39.02060 6.08474 38074 ft 447 kts 344°
2026-05-04 10:14 39.08257 6.07399 38072 ft 448 kts 345°
2026-05-04 10:16 39.33039 6.03090 38051 ft 448 kts 344°
2026-05-04 10:16 39.39265 6.01987 38051 ft 448 kts 344°
2026-05-04 10:17 39.45499 6.00881 38051 ft 448 kts 344°
2026-05-04 10:19 39.70311 5.96468 38050 ft 450 kts 344°
2026-05-04 10:19 39.76533 5.95357 38048 ft 450 kts 344°
2026-05-04 10:20 39.82762 5.94240 38048 ft 450 kts 344°
2026-05-04 10:20 39.89015 5.93122 38047 ft 450 kts 344°
2026-05-04 10:21 39.95216 5.92009 38047 ft 450 kts 344°
2026-05-04 10:21 40.01458 5.90886 38046 ft 450 kts 344°
2026-05-04 10:22 40.10826 5.89195 38044 ft 450 kts 344°
2026-05-04 10:23 40.17056 5.88068 38044 ft 450 kts 344°
2026-05-04 10:25 40.41965 5.83531 38044 ft 451 kts 344°
2026-05-04 10:25 40.48227 5.82457 38044 ft 453 kts 345°
2026-05-04 10:26 40.54536 5.81491 38045 ft 453 kts 345°
2026-05-04 10:26 40.60825 5.80513 38045 ft 454 kts 345°
2026-05-04 10:27 40.67112 5.79527 38045 ft 454 kts 345°
2026-05-04 10:27 40.73398 5.78533 38046 ft 455 kts 345°
2026-05-04 10:28 40.79728 5.77528 38047 ft 456 kts 345°
2026-05-04 10:28 40.86071 5.76519 38048 ft 457 kts 345°
2026-05-04 10:29 40.92211 5.75541 38048 ft 458 kts 345°
2026-05-04 10:29 40.98380 5.74555 38049 ft 458 kts 345°
2026-05-04 10:30 41.04727 5.73538 38050 ft 459 kts 345°
2026-05-04 10:30 41.11096 5.72516 38050 ft 459 kts 345°
2026-05-04 10:31 41.17424 5.71498 38051 ft 460 kts 345°
2026-05-04 10:32 41.39756 5.67887 38055 ft 461 kts 345°
2026-05-04 10:33 41.46196 5.66840 38055 ft 462 kts 345°
2026-05-04 10:33 41.52498 5.65813 38055 ft 462 kts 345°
2026-05-04 10:34 41.58893 5.64770 38055 ft 462 kts 345°
2026-05-04 10:34 41.65316 5.63718 38055 ft 462 kts 345°
2026-05-04 10:35 41.71718 5.62666 38055 ft 462 kts 345°
2026-05-04 10:35 41.78146 5.61610 38055 ft 462 kts 345°
2026-05-04 10:36 41.84495 5.60441 38055 ft 461 kts 344°
2026-05-04 10:36 41.90861 5.59215 38055 ft 461 kts 344°
2026-05-04 10:37 41.97252 5.57986 38055 ft 461 kts 344°
2026-05-04 10:37 42.03432 5.56798 38055 ft 461 kts 344°
2026-05-04 10:39 42.25713 5.52501 38055 ft 463 kts 344°
2026-05-04 10:40 42.32106 5.51264 38055 ft 463 kts 344°
2026-05-04 10:40 42.38517 5.50021 38054 ft 463 kts 344°
2026-05-04 10:41 42.44958 5.48768 38050 ft 464 kts 345°
2026-05-04 10:41 42.51375 5.47518 38046 ft 465 kts 345°
2026-05-04 10:42 42.57801 5.46264 38046 ft 465 kts 345°
2026-05-04 10:42 42.64219 5.45008 38047 ft 466 kts 345°
2026-05-04 10:43 42.70663 5.43745 38047 ft 466 kts 345°
2026-05-04 10:45 42.96508 5.38643 38046 ft 469 kts 345°
2026-05-04 10:45 43.02981 5.37358 38045 ft 469 kts 345°
2026-05-04 10:46 43.09516 5.36056 38044 ft 470 kts 345°
2026-05-04 10:46 43.16013 5.34759 38044 ft 470 kts 345°
2026-05-04 10:47 43.22523 5.33543 38043 ft 472 kts 348°
2026-05-04 10:47 43.29134 5.33029 38041 ft 475 kts 352°
2026-05-04 10:49 43.54500 5.25087 38031 ft 463 kts 335°
2026-05-04 10:50 43.60621 5.22267 38029 ft 463 kts 335°
2026-05-04 10:52 43.85205 5.10943 38024 ft 464 kts 335°
2026-05-04 10:52 43.91389 5.08081 38024 ft 464 kts 335°
2026-05-04 10:54 44.16052 4.96601 38035 ft 467 kts 336°
2026-05-04 10:56 44.40946 4.84908 38048 ft 470 kts 336°
2026-05-04 10:57 44.47170 4.81964 38048 ft 471 kts 336°
2026-05-04 10:57 44.53443 4.79099 38049 ft 473 kts 339°
2026-05-04 10:58 44.59955 4.77028 38051 ft 478 kts 346°
2026-05-04 10:58 44.66531 4.75556 38055 ft 478 kts 347°
2026-05-04 10:59 44.73137 4.74120 38059 ft 479 kts 347°
2026-05-04 10:59 44.79785 4.72654 38064 ft 479 kts 347°
2026-05-04 11:00 44.86401 4.71182 38068 ft 479 kts 347°
2026-05-04 11:02 45.12911 4.65229 38047 ft 480 kts 347°
2026-05-04 11:05 45.62892 4.53785 38046 ft 484 kts 347°
2026-05-04 11:06 45.69536 4.52244 38039 ft 484 kts 347°
2026-05-04 11:06 45.76261 4.50687 38036 ft 485 kts 347°
2026-05-04 11:10 46.23193 4.39674 38037 ft 487 kts 347°
2026-05-04 11:12 46.49656 4.31006 38012 ft 484 kts 342°
2026-05-04 11:12 46.56217 4.28685 38006 ft 484 kts 342°
2026-05-04 11:13 46.62798 4.26354 38001 ft 484 kts 342°
2026-05-04 11:13 46.69377 4.24023 38000 ft 485 kts 342°
2026-05-04 11:14 46.75975 4.21679 38000 ft 485 kts 342°
2026-05-04 11:16 47.02260 4.12277 38006 ft 485 kts 342°
2026-05-04 11:16 47.08767 4.09444 37978 ft 481 kts 335°
2026-05-04 11:17 47.15025 4.05844 37951 ft 480 kts 333°
2026-05-04 11:19 47.39859 3.91040 37998 ft 481 kts 333°
2026-05-04 11:19 47.46091 3.87314 37982 ft 482 kts 333°
2026-05-04 11:20 47.52353 3.83556 37995 ft 483 kts 333°
2026-05-04 11:20 47.58593 3.79811 38000 ft 482 kts 333°
2026-05-04 11:22 47.83541 3.64752 37999 ft 482 kts 333°
2026-05-04 11:23 47.89782 3.60951 37997 ft 482 kts 333°
2026-05-04 11:25 48.11596 3.47588 37995 ft 483 kts 333°
2026-05-04 11:25 48.17835 3.43734 37993 ft 482 kts 333°
2026-05-04 11:27 48.45888 3.26232 37987 ft 482 kts 332°
2026-05-04 11:28 48.52100 3.22267 37988 ft 482 kts 332°
2026-05-04 11:28 48.58302 3.18294 37990 ft 482 kts 332°
2026-05-04 11:29 48.64486 3.14324 37991 ft 483 kts 332°
2026-05-04 11:29 48.70689 3.10329 37991 ft 483 kts 332°
2026-05-04 11:33 49.12199 2.77133 37989 ft 479 kts 326°
2026-05-04 11:33 49.18006 2.72000 37988 ft 479 kts 326°
2026-05-04 11:34 49.23795 2.66870 37988 ft 479 kts 326°
2026-05-04 11:34 49.29542 2.61763 37989 ft 479 kts 326°
2026-05-04 11:35 49.35356 2.56578 37989 ft 479 kts 326°
2026-05-04 11:35 49.41125 2.51420 37989 ft 478 kts 326°
2026-05-04 11:36 49.46875 2.46256 37989 ft 478 kts 326°
2026-05-04 11:36 49.52679 2.41062 37987 ft 478 kts 328°
2026-05-04 11:37 49.58537 2.36125 37990 ft 479 kts 328°
2026-05-04 11:37 49.64403 2.31206 37985 ft 478 kts 328°
2026-05-04 11:38 49.70280 2.26233 37985 ft 478 kts 328°
2026-05-04 11:38 49.76112 2.21287 37990 ft 478 kts 328°
2026-05-04 11:39 49.81947 2.16305 37989 ft 478 kts 327°
2026-05-04 11:41 50.02353 1.98744 37994 ft 477 kts 326°
2026-05-04 11:41 50.08183 1.93667 37996 ft 477 kts 327°
2026-05-04 11:42 50.13970 1.88530 38000 ft 476 kts 324°
2026-05-04 11:42 50.19289 1.82471 38007 ft 471 kts 316°
2026-05-04 11:43 50.24079 1.75465 38009 ft 469 kts 312°
2026-05-04 11:43 50.28776 1.68251 38012 ft 469 kts 312°
2026-05-04 11:44 50.33435 1.61073 38009 ft 468 kts 312°
2026-05-04 11:44 50.38085 1.53921 38012 ft 469 kts 313°
2026-05-04 11:45 50.42796 1.46718 38009 ft 468 kts 311°
2026-05-04 11:45 50.47403 1.39539 38011 ft 468 kts 312°
2026-05-04 11:46 50.51967 1.32153 38012 ft 466 kts 309°
2026-05-04 11:46 50.56321 1.24735 38024 ft 466 kts 308°
2026-05-04 11:47 50.60833 1.17397 38031 ft 467 kts 311°
2026-05-04 11:47 50.65361 1.10294 38036 ft 467 kts 311°
2026-05-04 11:48 50.69988 1.02965 38038 ft 466 kts 311°
2026-05-04 11:48 50.74550 0.95709 38038 ft 466 kts 311°
2026-05-04 11:49 50.79149 0.88373 38040 ft 466 kts 311°
2026-05-04 11:49 50.83733 0.81037 38040 ft 466 kts 311°
2026-05-04 11:50 50.88306 0.73709 38042 ft 466 kts 311°
2026-05-04 11:50 50.92851 0.66402 38043 ft 466 kts 311°
2026-05-04 11:51 50.97405 0.59055 38045 ft 466 kts 311°
2026-05-04 11:51 51.01994 0.51636 38045 ft 465 kts 311°
2026-05-04 11:52 51.06530 0.44274 38047 ft 465 kts 311°
2026-05-04 11:52 51.11192 0.37077 38048 ft 466 kts 314°
2026-05-04 11:53 51.15909 0.29938 38050 ft 464 kts 313°
2026-05-04 11:53 51.20504 0.22914 38052 ft 452 kts 313°
2026-05-04 11:55 51.34634 -0.07432 38059 ft 415 kts 257°
2026-05-04 11:56 51.33876 -0.16675 37981 ft 419 kts 267°
2026-05-04 11:56 51.34702 -0.25866 37942 ft 430 kts 296°
2026-05-04 11:56 51.36538 -0.29708 37989 ft 437 kts 318°
2026-05-04 11:57 51.39172 -0.32257 38018 ft 443 kts 340°
2026-05-04 11:57 51.42186 -0.33118 38033 ft 447 kts
2026-05-04 11:57 51.45265 -0.32178 38042 ft 449 kts 23°
2026-05-04 11:57 51.47925 -0.29529 38046 ft 448 kts 45°
2026-05-04 11:58 51.49794 -0.25573 38049 ft 446 kts 66°
2026-05-04 11:58 51.50645 -0.20831 38050 ft 441 kts 88°
2026-05-04 11:58 51.50371 -0.15938 38053 ft 437 kts 109°
2026-05-04 11:58 51.49095 -0.11525 38052 ft 432 kts 128°
2026-05-04 11:59 51.46978 -0.08081 38052 ft 427 kts 148°
2026-05-04 11:59 51.44311 -0.06040 38052 ft 424 kts 167°
2026-05-04 11:59 51.41413 -0.05580 38051 ft 421 kts 186°
2026-05-04 11:59 51.38554 -0.06754 38051 ft 420 kts 206°
2026-05-04 12:00 51.36144 -0.09408 38050 ft 421 kts 225°
2026-05-04 12:00 51.34450 -0.13213 38050 ft 423 kts 245°
2026-05-04 12:00 51.33658 -0.17765 38050 ft 426 kts 264°
2026-05-04 12:00 51.33876 -0.22498 38050 ft 431 kts 284°
2026-05-04 12:01 51.35068 -0.26853 38051 ft 435 kts 303°
2026-05-04 12:01 51.37151 -0.30440 38051 ft 440 kts 322°
2026-05-04 12:02 51.53397 -0.23653 38055 ft 448 kts 32°
2026-05-04 12:03 51.58219 -0.17340 38051 ft 446 kts 54°
2026-05-04 12:03 51.59845 -0.13049 38052 ft 444 kts 68°
2026-05-04 12:03 51.60779 -0.08352 38052 ft 442 kts 82°
2026-05-04 12:04 51.60997 -0.03393 38052 ft 439 kts 96°
2026-05-04 12:04 51.60489 0.01389 38053 ft 436 kts 109°
2026-05-04 12:04 51.59282 0.05847 38062 ft 432 kts 123°
2026-05-04 12:04 51.57446 0.09692 38107 ft 430 kts 137°
2026-05-04 12:05 51.55101 0.12676 38132 ft 427 kts 152°
2026-05-04 12:05 51.52407 0.14622 38144 ft 424 kts 166°
2026-05-04 12:05 51.49495 0.15440 38136 ft 421 kts 180°
2026-05-04 12:05 51.46589 0.15070 38096 ft 417 kts 194°
2026-05-04 12:06 51.43854 0.13553 38075 ft 415 kts 208°
2026-05-04 12:06 51.41451 0.10981 38065 ft 413 kts 223°
2026-05-04 12:06 51.39548 0.07541 38059 ft 412 kts 237°
2026-05-04 12:06 51.38260 0.03474 38055 ft 413 kts 250°
2026-05-04 12:07 51.37646 -0.01085 38053 ft 415 kts 265°
2026-05-04 12:07 51.37775 -0.05721 38052 ft 418 kts 279°
2026-05-04 12:07 51.38634 -0.10194 38033 ft 422 kts 293°
2026-05-04 12:07 51.40167 -0.14202 37992 ft 427 kts 307°
2026-05-04 12:08 51.42337 -0.17579 37971 ft 433 kts 322°
2026-05-04 12:08 51.44791 -0.20448 37960 ft 435 kts 317°
2026-05-04 12:08 51.46848 -0.23993 37972 ft 433 kts 303°
2026-05-04 12:08 51.48294 -0.28213 38008 ft 431 kts 289°
2026-05-04 12:09 51.49048 -0.32881 38028 ft 427 kts 274°
2026-05-04 12:09 51.49056 -0.37607 38038 ft 424 kts 260°
2026-05-04 12:09 51.47939 -0.46983 38049 ft 424 kts 258°
2026-05-04 12:10 51.46877 -0.56275 38050 ft 424 kts 258°
2026-05-04 12:10 51.45804 -0.65627 38051 ft 424 kts 258°
2026-05-04 12:11 51.44722 -0.75005 38052 ft 424 kts 258°
2026-05-04 12:11 51.43649 -0.84285 38052 ft 424 kts 258°
2026-05-04 12:12 51.42562 -0.93657 38052 ft 424 kts 258°
2026-05-04 12:12 51.41479 -1.02985 38053 ft 424 kts 258°
2026-05-04 12:14 51.37074 -1.40250 38054 ft 424 kts 258°
2026-05-04 12:15 51.35957 -1.49601 38054 ft 424 kts 258°
2026-05-04 12:15 51.34844 -1.58893 38061 ft 424 kts 258°
2026-05-04 12:16 51.33717 -1.68200 38064 ft 424 kts 257°
2026-05-04 12:16 51.32574 -1.77513 38053 ft 425 kts 257°
2026-05-04 12:17 51.31428 -1.86775 38039 ft 426 kts 257°
2026-05-04 12:17 51.30261 -1.96153 38029 ft 427 kts 257°
2026-05-04 12:18 51.29094 -2.05484 38026 ft 426 kts 257°
2026-05-04 12:18 51.27920 -2.14797 38016 ft 427 kts 257°
2026-05-04 12:19 51.26742 -2.24128 38012 ft 427 kts 258°
2026-05-04 12:19 51.25563 -2.33452 38016 ft 427 kts 258°
2026-05-04 12:20 51.24381 -2.42727 38018 ft 427 kts 258°
2026-05-04 12:20 51.23188 -2.52053 38017 ft 427 kts 258°
2026-05-04 12:21 51.21993 -2.61378 38018 ft 428 kts 258°
2026-05-04 12:21 51.20793 -2.70716 38018 ft 428 kts 257°
2026-05-04 12:22 51.19587 -2.80086 38017 ft 428 kts 257°
2026-05-04 12:22 51.18388 -2.89359 38016 ft 428 kts 257°
2026-05-04 12:23 51.17170 -2.98715 38016 ft 428 kts 257°
2026-05-04 12:23 51.15952 -3.08015 38016 ft 429 kts 257°
2026-05-04 12:24 51.14723 -3.17376 38016 ft 429 kts 257°
2026-05-04 12:24 51.13495 -3.26704 38016 ft 430 kts 257°
2026-05-04 12:25 51.12260 -3.36016 38014 ft 430 kts 257°
2026-05-04 12:25 51.11005 -3.45413 38014 ft 430 kts 257°
2026-05-04 12:26 51.09759 -3.54722 38015 ft 431 kts 257°
2026-05-04 12:26 51.08498 -3.64105 38016 ft 431 kts 257°
2026-05-04 12:27 51.07229 -3.73476 38019 ft 431 kts 257°
2026-05-04 12:27 51.05959 -3.82790 38020 ft 431 kts 257°
2026-05-04 12:28 51.04676 -3.92169 38020 ft 431 kts 257°
2026-05-04 12:28 51.03395 -4.01516 38021 ft 431 kts 257°
2026-05-04 12:29 51.02117 -4.10870 38020 ft 432 kts 257°
2026-05-04 12:29 51.00835 -4.20222 38013 ft 432 kts 257°
2026-05-04 12:30 50.99546 -4.29594 38012 ft 434 kts 257°
2026-05-04 12:30 50.98247 -4.38995 38019 ft 434 kts 257°
2026-05-04 12:31 50.96948 -4.48371 38021 ft 435 kts 257°
2026-05-04 12:31 50.95643 -4.57764 38022 ft 435 kts 257°
2026-05-04 12:32 50.93674 -4.71875 38023 ft 435 kts 256°
2026-05-04 12:33 50.92359 -4.81258 38024 ft 435 kts 256°
2026-05-04 12:33 50.91081 -4.90349 38024 ft 435 kts 256°
2026-05-04 12:34 50.89756 -4.99750 38026 ft 435 kts 257°
2026-05-04 12:34 50.88427 -5.09135 38027 ft 436 kts 257°
2026-05-04 12:35 50.87088 -5.18515 38024 ft 436 kts 257°
2026-05-04 12:35 50.85756 -5.27758 38020 ft 436 kts 257°
2026-05-04 12:36 50.84426 -5.36929 38018 ft 436 kts 257°
2026-05-04 12:36 50.83086 -5.46126 38017 ft 436 kts 257°
2026-05-04 12:37 50.81716 -5.55520 38016 ft 436 kts 257°
2026-05-04 12:37 50.80351 -5.64831 38015 ft 437 kts 257°
2026-05-04 12:38 50.79002 -5.74009 38014 ft 437 kts 256°
2026-05-04 12:38 50.77693 -5.82912 38014 ft 438 kts 256°
2026-05-04 12:39 50.76305 -5.92326 38013 ft 438 kts 256°
2026-05-04 12:39 50.74915 -6.01728 38014 ft 438 kts 256°
2026-05-04 12:40 50.73525 -6.11086 38015 ft 438 kts 256°
2026-05-04 12:40 50.72102 -6.20515 38016 ft 438 kts 256°
2026-05-04 12:41 50.70680 -6.29854 38016 ft 439 kts 256°
2026-05-04 12:41 50.69231 -6.39275 38019 ft 440 kts 256°
2026-05-04 12:42 50.67781 -6.48642 38025 ft 440 kts 256°
2026-05-04 12:42 50.66334 -6.57940 38033 ft 440 kts 256°
2026-05-04 12:43 50.64866 -6.67333 38036 ft 440 kts 256°
2026-05-04 12:43 50.63393 -6.76710 38037 ft 440 kts 256°
2026-05-04 12:44 50.61910 -6.86099 38037 ft 441 kts 256°
2026-05-04 12:44 50.60418 -6.95491 38036 ft 441 kts 256°
2026-05-04 12:45 50.58941 -7.04723 38038 ft 441 kts 256°
2026-05-04 12:45 50.57480 -7.13800 38038 ft 441 kts 256°
2026-05-04 12:46 50.55964 -7.23160 38038 ft 442 kts 256°
2026-05-04 12:46 50.54446 -7.32530 38036 ft 442 kts 256°
2026-05-04 12:47 50.52909 -7.41959 38037 ft 443 kts 256°
2026-05-04 12:47 50.51366 -7.51349 38038 ft 443 kts 256°
2026-05-04 12:48 50.49812 -7.60736 38039 ft 444 kts 256°
2026-05-04 12:48 50.48278 -7.69957 38038 ft 444 kts 255°
2026-05-04 12:49 50.46707 -7.79363 38039 ft 444 kts 255°
2026-05-04 12:49 50.45130 -7.88756 38041 ft 445 kts 256°
2026-05-04 12:50 50.43549 -7.98145 38044 ft 444 kts 256°
2026-05-04 12:50 50.41965 -8.07519 38050 ft 444 kts 256°
2026-05-04 12:51 50.40366 -8.16927 38053 ft 444 kts 256°
2026-05-04 12:51 50.38761 -8.26287 38056 ft 445 kts 256°
2026-05-04 12:52 50.37149 -8.35645 38058 ft 445 kts 256°
2026-05-04 12:52 50.35529 -8.45065 38062 ft 445 kts 256°
2026-05-04 12:53 50.33981 -8.54037 38064 ft 445 kts 256°
2026-05-04 12:53 50.32403 -8.63138 38068 ft 445 kts 256°
2026-05-04 12:54 50.30771 -8.72506 38074 ft 445 kts 255°
2026-05-04 12:54 50.29156 -8.81733 38080 ft 445 kts 255°
2026-05-04 12:55 50.27506 -8.91115 38083 ft 445 kts 255°
2026-05-04 12:55 50.25850 -9.00434 38083 ft 446 kts 255°
2026-05-04 12:56 50.24168 -9.09837 38083 ft 446 kts 255°
2026-05-04 12:56 50.22486 -9.19187 38081 ft 446 kts 255°
2026-05-04 12:57 50.20799 -9.28519 38080 ft 446 kts 255°
2026-05-04 12:57 50.19106 -9.37837 38077 ft 446 kts 255°
2026-05-04 12:58 50.17405 -9.47148 38076 ft 446 kts 255°
2026-05-04 12:58 50.15770 -9.56040 38074 ft 447 kts 255°
2026-05-04 12:59 50.14052 -9.65357 38073 ft 447 kts 255°
2026-05-04 12:59 50.12330 -9.74681 38073 ft 447 kts 255°
2026-05-04 13:00 50.10606 -9.83986 38073 ft 447 kts 255°
2026-05-04 13:00 50.08873 -9.93313 38075 ft 447 kts 255°
2026-05-04 13:01 50.07172 -10.02451 38077 ft 447 kts 255°
2026-05-04 13:01 50.05489 -10.11489 38081 ft 446 kts 255°
2026-05-04 13:02 50.03760 -10.20751 38084 ft 446 kts 255°
2026-05-04 13:02 50.02023 -10.30034 38090 ft 446 kts 255°
2026-05-04 13:03 50.00275 -10.39353 38094 ft 446 kts 255°
2026-05-04 13:03 49.98535 -10.48621 38088 ft 446 kts 255°
2026-05-04 13:04 49.96833 -10.57660 38085 ft 446 kts 255°
2026-05-04 13:04 49.95104 -10.66876 38090 ft 439 kts 254°
2026-05-04 13:05 49.93458 -10.75838 38084 ft 417 kts 254°
2026-05-04 13:05 49.92680 -10.80079 38060 ft 403 kts 254°
2026-05-04 13:05 49.91912 -10.84223 38019 ft 390 kts 253°
2026-05-04 13:05 49.91166 -10.88168 37957 ft 378 kts 253°
2026-05-04 13:06 49.90414 -10.92019 37871 ft 366 kts 253°
2026-05-04 13:06 49.89654 -10.95772 37758 ft 355 kts 252°
2026-05-04 13:06 49.88897 -10.99355 37618 ft 346 kts 252°
2026-05-04 13:06 49.88127 -11.02856 37446 ft 338 kts 251°
2026-05-04 13:07 49.87350 -11.06231 37247 ft 331 kts 250°
2026-05-04 13:07 49.86549 -11.09543 37021 ft 325 kts 249°
2026-05-04 13:07 49.85725 -11.12776 36773 ft 320 kts 248°
2026-05-04 13:07 49.84869 -11.15949 36517 ft 316 kts 247°
2026-05-04 13:08 49.83989 -11.19053 36242 ft 314 kts 246°
2026-05-04 13:08 49.83086 -11.22081 35953 ft 312 kts 245°
2026-05-04 13:08 49.82132 -11.25129 35646 ft 311 kts 244°
2026-05-04 13:08 49.81175 -11.28046 35332 ft 311 kts 243°
2026-05-04 13:09 49.80159 -11.31004 34998 ft 312 kts 242°
2026-05-04 13:09 49.79104 -11.33944 34653 ft 313 kts 241°
2026-05-04 13:09 49.78018 -11.36849 34303 ft 315 kts 240°
2026-05-04 13:09 49.76878 -11.39778 33941 ft 317 kts 239°
2026-05-04 13:10 49.75760 -11.42537 33594 ft 320 kts 238°
2026-05-04 13:10 49.74604 -11.45287 33220 ft 322 kts 237°
2026-05-04 13:10 49.73349 -11.48165 32747 ft 325 kts 236°
2026-05-04 13:10 49.72048 -11.51056 32274 ft 327 kts 235°
2026-05-04 13:11 49.70713 -11.53932 31808 ft 329 kts 234°
2026-05-04 13:11 49.69344 -11.56799 31343 ft 332 kts 233°
2026-05-04 13:11 49.67960 -11.59620 30881 ft 334 kts 233°
2026-05-04 13:11 49.66521 -11.62487 30429 ft 336 kts 232°
2026-05-04 13:12 49.65076 -11.65301 30010 ft 338 kts 231°
2026-05-04 13:12 49.63583 -11.68149 29572 ft 339 kts 230°
2026-05-04 13:12 49.62074 -11.70970 29114 ft 341 kts 230°
2026-05-04 13:12 49.60541 -11.73782 28670 ft 342 kts 229°
2026-05-04 13:13 49.58999 -11.76553 28242 ft 342 kts 229°
2026-05-04 13:13 49.57446 -11.79287 27827 ft 341 kts 228°
2026-05-04 13:13 49.55846 -11.82048 27411 ft 340 kts 227°
2026-05-04 13:13 49.54258 -11.84736 27016 ft 339 kts 227°
2026-05-04 13:14 49.52661 -11.87391 26630 ft 338 kts 226°
2026-05-04 13:14 49.51051 -11.90021 26257 ft 336 kts 226°
2026-05-04 13:14 49.49433 -11.92621 25900 ft 333 kts 225°
2026-05-04 13:14 49.47894 -11.95051 25564 ft 331 kts 225°
2026-05-04 13:15 49.46268 -11.97575 25213 ft 329 kts 224°
2026-05-04 13:15 49.44644 -12.00051 24871 ft 326 kts 224°
2026-05-04 13:15 49.43019 -12.02485 24545 ft 324 kts 224°
2026-05-04 13:15 49.41413 -12.04845 24227 ft 321 kts 223°
2026-05-04 13:16 49.39790 -12.07187 23910 ft 318 kts 223°
2026-05-04 13:16 49.38159 -12.09496 23597 ft 315 kts 222°
2026-05-04 13:16 49.36536 -12.11749 23291 ft 313 kts 221°
2026-05-04 13:16 49.34910 -12.13962 22983 ft 310 kts 221°
2026-05-04 13:17 49.33347 -12.16046 22687 ft 308 kts 220°
2026-05-04 13:17 49.31710 -12.18185 22380 ft 306 kts 220°
2026-05-04 13:17 49.30093 -12.20254 22087 ft 303 kts 219°
2026-05-04 13:17 49.28460 -12.22300 21796 ft 301 kts 219°
2026-05-04 13:18 49.26821 -12.24309 21507 ft 298 kts 218°
2026-05-04 13:18 49.25191 -12.26266 21222 ft 296 kts 217°
2026-05-04 13:18 49.23575 -12.28166 20939 ft 293 kts 217°
2026-05-04 13:18 49.21949 -12.30048 20652 ft 291 kts 216°
2026-05-04 13:19 49.20314 -12.31907 20362 ft 289 kts 216°
2026-05-04 13:19 49.18697 -12.33716 20077 ft 286 kts 215°
2026-05-04 13:19 49.17186 -12.35376 19810 ft 284 kts 215°
2026-05-04 13:19 49.15677 -12.37007 19543 ft 282 kts 214°
2026-05-04 13:20 49.14063 -12.38722 19256 ft 280 kts 214°
2026-05-04 13:20 49.12455 -12.40398 18970 ft 278 kts 213°
2026-05-04 13:20 49.10898 -12.41993 18692 ft 276 kts 213°
2026-05-04 13:20 49.09280 -12.43619 18403 ft 274 kts 212°
2026-05-04 13:21 49.07688 -12.45190 18119 ft 273 kts 212°
2026-05-04 13:21 49.06083 -12.46745 17832 ft 271 kts 211°
2026-05-04 13:21 49.04475 -12.48273 17543 ft 269 kts 211°
2026-05-04 13:21 49.02885 -12.49756 17256 ft 268 kts 210°
2026-05-04 13:22 49.01298 -12.51209 16971 ft 266 kts 210°
2026-05-04 13:22 48.99688 -12.52655 16682 ft 265 kts 210°
2026-05-04 13:22 48.98100 -12.54054 16396 ft 263 kts 209°
2026-05-04 13:22 48.96495 -12.55442 16107 ft 262 kts 208°
2026-05-04 13:23 48.94900 -12.56795 15819 ft 261 kts 208°
2026-05-04 13:23 48.93314 -12.58114 15533 ft 259 kts 207°
2026-05-04 13:23 48.91718 -12.59417 15244 ft 258 kts 207°
2026-05-04 13:23 48.90136 -12.60681 14957 ft 257 kts 206°
2026-05-04 13:24 48.88538 -12.61940 14659 ft 255 kts 206°
2026-05-04 13:24 48.86965 -12.63158 14360 ft 254 kts 206°
2026-05-04 13:24 48.85411 -12.64343 14067 ft 253 kts 205°
2026-05-04 13:25 48.82361 -12.66600 13500 ft 251 kts 204°
2026-05-04 13:25 48.80786 -12.67730 13202 ft 249 kts 203°
2026-05-04 13:25 48.79218 -12.68829 12904 ft 247 kts 202°
2026-05-04 13:25 48.77674 -12.69877 12611 ft 246 kts 202°
2026-05-04 13:26 48.76117 -12.70901 12316 ft 245 kts 201°
2026-05-04 13:26 48.74538 -12.71907 12014 ft 244 kts 200°
2026-05-04 13:26 48.72965 -12.72877 11723 ft 243 kts 200°